Location: Hilderbrand
(37.5756°N, 89.8540°W)
Time: 12:14:13
(UTC+00:00)

ISS - Pass Details

Date: 15 November 2025
Orbit: 416 x 421 km, 51.6° (Epoch: 05 December)

Event Time Altitude Azimuth Distance (km) Brightness Sun altitude
Rises 23:15:45 0° 235° (SW) 2,357 1.9 -5.9°
Reaches altitude 10° 23:17:51 10° 239° (WSW) 1,495 0.7 -6.3°
Maximum altitude 23:21:11 65° 321° (NW) 465 -3.4 -6.9°
Drops below altitude 10° 23:24:32 10° 45° (NE) 1,499 -1.5 -7.6°
Enters shadow 23:24:56 - 46° (NE) 1,662 -1.3 -7.6°
